Portada
METAR-TAF:

METAR-TAF

Aeroports :

Providencia Island, Colòmbia

latitud: 13-22N, longitud: 081-21W, altitud: 6 m

Observació

L'informe es va fer fa 1 hora i 2 minuts, a les 17:00 UTC
Vent 4 kt amb direcció variable
Temperatura 30°C
Humitat 75%
Pressió 1013 hPa
Visibilitat 10 km o més
Núvols disperses a una alçada de 1700 ft, Cumulus congestus.
Núvols disperses a una alçada de 20000 ft

METAR: SKPV 221700Z VRB04KT 9999 SCT017TCU SCT200 30/25 A2992

Hora: 13:02 (18:02 UTC)


TAF: manca

Observacions i pronòstics meteorològics de més de 4000 aeroports (METAR i TAF).

Les estacions disponibles són els punts grocs i vermells al mapa.

Posi el ratolí al punt desitjat per veure el nom de l'estació.

Feu clic per veure les observacions i els pronòstics meteorològics.

Per canviar el mapa: feu clic els botons verds amb una creu de color negre per apropar; al botó verd amb un guió per allunyar la imatge; o en les fletxes verdes per a mapes adjacents.


METAR-TAF: